Regional Weather Roundup
Issued by NWS Boston, MA

Current Version | Previous Version | Text Only | Print | Product List | Glossary Off
Versions: 1 2 3 4 5 6 7 8 9 10 11 12 13 14 15 16 17 18 19 20 21 22 23 24 25 26 27 28 29 30 31 32 33 34 35 36 37 38 39 40 41 42 43 44 45 46 47 48 49 50
000 ASUS41 KBOX 230110 RWRBOX REGIONAL WEATHER ROUNDUP NATIONAL WEATHER SERVICE BOSTON/NORTON MA 900 PM EDT FRI JUN 22 2018 NOTE: "FAIR" INDICATES FEW OR NO CLOUDS BELOW 12,000 FEET WITH NO SIGNIFICANT WEATHER AND/OR OBSTRUCTIONS TO VISIBILITY. MAZALL-230200- EASTERN MASSACHUSETTS CITY SKY/WX TMP DP RH WIND PRES REMARKS BOSTON CLOUDY 67 45 45 S12 30.06R BEVERLY FAIR 64 50 60 S6 30.05R LAWRENCE FAIR 68 51 54 VRB3 30.07R BEDFORD MOCLDY 66 51 58 S9 30.04R BLUE HILL N/A 62 51 67 S8 30.06R NORWOOD FAIR 65 50 58 S3 30.06R MARSHFIELD FAIR 64 48 55 VRB6 30.06S PLYMOUTH FAIR 62 49 62 SE5 30.07S TAUNTON FAIR 61 52 72 SE3 30.06R NEW BEDFORD FAIR 64 53 67 SE6 30.05S $$ MAZALL-230200- CAPE COD AND THE ISLANDS CITY SKY/WX TMP DP RH WIND PRES REMARKS FALMOUTH FAIR 59 48 67 SE7 30.07F HYANNIS FAIR 63 47 55 SE6 30.05F CHATHAM FAIR 60 51 72 SE5 30.08S PROVINCETOWN FAIR 64 47 53 S7 30.07F NANTUCKET FAIR 58 49 72 E10 30.05F MARTHAS VNYRD FAIR 60 46 59 E3 30.06F $$ MAZALL-230200- CENTRAL AND WESTERN MASSACHUSETTS CITY SKY/WX TMP DP RH WIND PRES REMARKS WORCESTER FAIR 62 57 83 SE10 30.07R FITCHBURG FAIR 67 58 72 S9 30.05R ORANGE FAIR 70 53 54 S14G20 30.04R SPRINGFIELD MOCLDY 67 51 56 S7 30.02R WESTFIELD FAIR 67 52 58 S5 30.02R NORTH ADAMS FAIR 67 53 61 NE5 30.00R PITTSFIELD FAIR 68 56 65 VRB7 30.01S $$ RIZALL-230200- RHODE ISLAND CITY SKY/WX TMP DP RH WIND PRES REMARKS PROVIDENCE MOCLDY 63 46 54 S6 30.06S NEWPORT FAIR 61 51 70 SE6 30.06R BLOCK ISLAND FAIR 60 53 77 E9 N/A SMITHFIELD FAIR 60 45 57 CALM 30.07S WESTERLY FAIR 63 57 81 E5 30.06S $$ CTZALL-230200- CONNECTICUT CITY SKY/WX TMP DP RH WIND PRES REMARKS BRADLEY INTL MOCLDY 68 56 65 S13 30.03R HARTFORD FAIR 66 58 75 S6 30.03R BRIDGEPORT FAIR 65 61 87 E12 30.02F DANBURY FAIR 64 59 83 E8 30.03R GROTON FAIR 63 55 75 E9 30.03F NEW HAVEN FAIR 63 59 87 E7 30.04R CHESTER FAIR 61 59 94 CALM 30.05S MERIDEN FAIR 64 56 75 S6 30.04R WILLIMANTIC FAIR 65 55 70 VRB3 30.05S OXFORD FAIR 62 58 86 SE5 30.05R $$ MEZ002-015-021-024-NHZ003-005-008-011-012-014-VTZ005-008-230200- NORTHERN NEW ENGLAND CITY SKY/WX TMP DP RH WIND PRES REMARKS PORTLAND ME CLOUDY 61 53 75 S6 30.06S BANGOR ME MOCLDY 63 45 51 S8 30.04R CONCORD NH FAIR 65 50 58 VRB7 30.04R MANCHESTER NH MOCLDY 69 51 52 SE7 30.03R NASHUA NH NOT AVBL PORTSMOUTH NH MOCLDY 61 53 75 SE7 30.04S JAFFREY NH FAIR 67 56 67 S5 30.05R KEENE NH FAIR 66 57 72 CALM 30.02R BURLINGTON VT MOCLDY 71 48 43 SE8 29.95F MT. WASHINGTON MOCLDY 48 34 57 W14 N/A $$ NYZ052-076-230200- EASTERN NEW YORK CITY SKY/WX TMP DP RH WIND PRES REMARKS ALBANY MOCLDY 74 53 48 S10 29.98R NEW YORK CITY CLOUDY 69 59 70 E12 29.99F $$ ANZALL-230200- MARINE OBSERVATIONS STATION/POSITION TIME TEMP WIND PRES VSBY WAVE AIR SEA DIR/SP/G HT/PER (UTC) (F) (DEG/KT/KT) (MB) (MI) (FT/S) BOSTON BUOY 0050 64 62 140/ 10/ 12 1017.4S 1/ 3 BUZZARDS BAY 0000 63 120/ 12/ 13 1018.2F NANTUCKET SOUND 0050 63 67 110/ 12/ 14 1017.7F 1/ 7 MASS BAY-STELLWA 0004 61 61 1016.3R 1/ 3 ISLE OF SHOALS 0000 61 150/ 10/ 11 1017.4R S OF BLOCK IS 0043 62 N/A 2/ 4 $$ ......................KEY......................... SKY/WX - SKY CONDITION/PRESENT WEATHER TMP - TEMPERATURE IN FAHRENHEIT DWPT - DEWPOINT IN FAHRENHEIT RH - RELATIVE HUMIDITY IN PERCENT WIND - DIRECTION AND SPEED IN MPH PRES - MEAN SEA LEVEL PRESSURE IN INCHES OF HG WCI - WIND CHILL INDEX VSB - VISIBILITY IN MILES HX - HEAT INDEX TC - TEMPERATURE IN CELSIUS VRB - VARIABLE WIND DIRECTION N/A - NOT AVAILABLE

USA.gov is the U.S. government's official web portal to all federal, state and local government web resources and services.